Voltar ao catálogo

CZ-11 R/B

AtivoLEO
NORAD 43872·ROCKET BODY·🇨🇳 China

Lançado Dec 21, 2018 de Jiuquan Satellite Launch Center

Loading…

Próximas Passagens (próximas 24 horas)

TLE

AtualizadoSource: Space-Track

Época: Sep 13, 2026, 11:35 UTC

1 43872U 18108B   26256.48276980 -.00000164  00000-0 -41841-4 0  9992
2 43872 100.3624 335.7524 0331259  46.4031 316.4118 14.01888241395279

Acompanhe CZ-11 R/B em tempo real com AllMySat

Download on the App Store